Content
SEND FEEDBACK

Daily
Averages
Monthly
Summary
United States of America

STERLING, COLORADO


Home > North America > United States > Colorado
Elevation: 4037 feet     Latitude: 40 36N     Longitude: 103 15W

WEATHER
 
SELECT A DAY
Number of Records: 223,464;   Date Range: 1/1/95 - 10/20/14
 
SHARE

PRINT THIS DATA

[ ← Previous Day ]
WEATHER ALMANAC - JANUARY 3, 2013
[ Next Day → ]
[ °C ]   °F
Weather ElementAverageHighLow
Temperature15.7 °F25 °F (2:53 pm)5 °F (5:53 am)
Dewpoint5.3 °F12 °F (1:53 am)-0.9 °F (7:53 am)
Humidity64.7 %92 % (5:53 am)46 % (11:53 pm)
Barometer30.41 in30.48 in (5:53 am)30.33 in (1:53 pm)
Wind Speed10.8 mph15 mph (8:53 am)
Weather ElementAverage
Visibility10 mi
Wind DirectionWSW (259.1 °)

Weather ElementTotal
Precipitation---
Heating Degree Days50 (Base 65)
Averaged from 23 records on January 3, 2013
WEATHER CONDITIONS BREAKOUT
WIND DIRECTION BREAKOUT
WEATHER BY HOUR - JANUARY 3, 2013
[ °C ]   °F
Local TimeTemperatureDewpointHumidityBarometerVisibilityWind DirectionWind SpeedGust SpeedPrecipitationEventsConditions
1:53 AM18.0 °F12.0 °F78 %30.42 in10.0 miNorth (350°)12.7 mphOvercast
2:53 AM18.0 °F12.0 °F78 %30.43 in10.0 miNNW (340°)9.2 mphOvercast
3:53 AM15.1 °F9.0 °F77 %30.43 in10.0 miNNW (330°)12.7 mphMostly Cloudy
4:53 AM10.9 °F6.1 °F81 %30.46 in10.0 miWNW (290°)10.4 mphClear
5:53 AM5.0 °F3.0 °F92 %30.48 in10.0 miWest (270°)6.9 mphClear
6:53 AM5.0 °F1.0 °F84 %30.48 in10.0 miSW (230°)9.2 mphClear
7:53 AM5.0 °F-0.9 °F76 %30.48 in10.0 miWest (270°)9.2 mphClear
8:53 AM10.0 °F1.9 °F70 %30.47 in10.0 miWest (270°)15.0 mphClear
9:53 AM14.0 °F5.0 °F67 %30.45 in10.0 miWest (270°)15.0 mphClear
10:53 AM16.0 °F7.0 °F68 %30.43 in10.0 miWSW (250°)12.7 mphClear
11:53 AM19.9 °F8.1 °F60 %30.39 in10.0 miWSW (250°)11.5 mphClear
12:53 PM21.0 °F10.0 °F63 %30.35 in10.0 miWSW (240°)10.4 mphClear
1:53 PM23.0 °F10.9 °F60 %30.33 in10.0 miWSW (250°)10.4 mphClear
2:53 PM25.0 °F10.9 °F55 %30.33 in10.0 miSW (230°)6.9 mphClear
3:53 PM21.9 °F9.0 °F58 %30.35 in10.0 miSW (230°)9.2 mphClear
4:53 PM19.0 °F5.0 °F54 %30.38 in10.0 miSW (230°)9.2 mphClear
5:53 PM17.1 °F3.0 °F54 %30.42 in10.0 miSW (230°)10.4 mphClear
6:53 PM14.0 °F1.0 °F56 %30.42 in10.0 miWSW (240°)8.1 mphClear
7:53 PM19.0 °F3.0 °F50 %30.40 in10.0 miWSW (240°)12.7 mphClear
8:53 PM16.0 °F1.0 °F52 %30.40 in10.0 miWSW (240°)11.5 mphClear
9:53 PM14.0 °F1.0 °F56 %30.40 in10.0 miSW (230°)9.2 mphClear
10:53 PM16.0 °F1.0 °F52 %30.38 in10.0 miSW (230°)12.7 mphClear
11:53 PM19.0 °F1.0 °F46 %30.34 in10.0 miWSW (250°)13.8 mphClear
Hourly data recorded from KSTK, located miles away from Sterling, Colorado







STORIES FROM OUR PARTNERS